Location: Newark
(30.1997°N, 31.2053°E)
Time: 07:34:55
(UTC+00:00)

ISS - Visible Passes

Search period start: 01 October 2020 00:00
Search period end: 11 October 2020 00:00
Orbit: 419 x 421 km, 51.6° (Epoch: 01 October)

Date Brightness Start Highest point End Pass type
(mag) Time Alt. Az. Time Alt. Az. Time Alt. Az.
04 Oct -1.3 16:51:49 10° N 16:52:37 12° NNE 16:52:37 12° NNE visible
05 Oct -0.9 17:39:44 10° NW 17:40:25 15° NW 17:40:25 15° NW visible
06 Oct -2.8 16:52:36 10° NNW 16:55:20 33° NNE 16:55:20 33° NNE visible
07 Oct -2.1 16:05:42 10° NNW 16:08:17 20° NE 16:10:25 12° E visible
07 Oct -0.9 17:42:10 10° WNW 17:43:25 18° W 17:43:25 18° W visible
08 Oct -3.2 16:54:30 10° NW 16:57:48 55° SW 16:58:40 40° S visible
09 Oct -3.8 16:07:07 10° NW 16:10:28 70° NE 16:13:48 10° SE visible
10 Oct -0.8 16:57:45 10° W 16:59:36 14° SW 17:01:26 10° SSW visible
